Time,TemperatureF,DewpointF,PressureIn,WindDirection,WindDirectionDegrees,WindSpeedMPH,WindSpeedGustMPH,Humidity,HourlyPrecipIn,Conditions,Clouds,dailyrainin,SolarRadiationWatts/m^2,SoftwareType,DateUTC
2013-02-18 00:00:00,24.7,6.8,30.42,NW,319,2.0,7.0,46,0.00,,,0.00,0,Wunderground v.1.15,2013-02-18 05:00:00,
2013-02-18 00:05:00,24.8,6.9,30.43,NNW,327,3.0,7.0,46,0.00,,,0.00,0,Wunderground v.1.15,2013-02-18 05:05:00,
2013-02-18 00:10:00,24.8,6.4,30.43,WSW,257,3.0,3.0,45,0.00,,,0.00,0,Wunderground v.1.15,2013-02-18 05:10:00,
2013-02-18 00:15:00,24.8,7.4,30.43,NW,306,2.0,7.0,47,0.00,,,0.00,0,Wunderground v.1.15,2013-02-18 05:15:00,
2013-02-18 00:20:00,24.7,7.3,30.43,WNW,298,1.0,1.0,47,0.00,,,0.00,0,Wunderground v.1.15,2013-02-18 05:20:00,
2013-02-18 00:29:00,24.7,5.8,30.43,NW,313,2.0,2.0,44,0.00,,,0.00,0,Wunderground v.1.15,2013-02-18 05:29:00,
2013-02-18 00:35:00,24.8,5.9,30.43,NW,322,3.0,3.0,44,0.00,,,0.00,0,Wunderground v.1.15,2013-02-18 05:35:00,
2013-02-18 00:45:00,25.1,6.2,30.44,North,355,3.0,5.0,44,0.00,,,0.00,0,Wunderground v.1.15,2013-02-18 05:45:00,
2013-02-18 00:50:00,25.3,6.4,30.44,NW,324,3.0,3.0,44,0.00,,,0.00,0,Wunderground v.1.15,2013-02-18 05:50:00,
2013-02-18 01:00:00,25.4,6.0,30.44,SW,219,1.0,1.0,43,0.00,,,0.00,0,Wunderground v.1.15,2013-02-18 06:00:00,
2013-02-18 01:10:00,25.3,8.3,30.44,SW,219,0.0,7.0,48,0.00,,,0.00,0,Wunderground v.1.15,2013-02-18 06:10:00,
2013-02-18 01:15:00,25.0,9.0,30.44,SW,220,0.0,7.0,50,0.00,,,0.00,0,Wunderground v.1.15,2013-02-18 06:15:00,
2013-02-18 01:24:00,24.1,8.6,30.44,SW,219,0.0,7.0,51,0.00,,,0.00,0,Wunderground v.1.15,2013-02-18 06:24:00,
2013-02-18 01:30:00,23.7,8.6,30.44,SW,219,0.0,7.0,52,0.00,,,0.00,0,Wunderground v.1.15,2013-02-18 06:30:00,
2013-02-18 01:40:00,23.4,6.6,30.45,NNW,342,0.0,7.0,48,0.00,,,0.00,0,Wunderground v.1.15,2013-02-18 06:40:00,
2013-02-18 01:45:00,23.5,6.2,30.45,NNW,342,0.0,7.0,47,0.00,,,0.00,0,Wunderground v.1.15,2013-02-18 06:45:00,
2013-02-18 01:55:00,24.1,6.3,30.45,WNW,288,1.0,7.0,46,0.00,,,0.00,0,Wunderground v.1.15,2013-02-18 06:55:00,
2013-02-18 02:00:00,24.6,6.7,30.44,WNW,302,2.0,2.0,46,0.00,,,0.00,0,Wunderground v.1.15,2013-02-18 07:00:00,
2013-02-18 02:10:00,25.1,7.2,30.45,NW,323,1.0,1.0,46,0.00,,,0.00,0,Wunderground v.1.15,2013-02-18 07:10:00,
2013-02-18 02:15:00,25.2,7.8,30.45,NW,324,0.0,7.0,47,0.00,,,0.00,0,Wunderground v.1.15,2013-02-18 07:15:00,
2013-02-18 02:25:00,25.0,9.4,30.46,NW,323,0.0,7.0,51,0.00,,,0.00,0,Wunderground v.1.15,2013-02-18 07:25:00,
2013-02-18 02:35:00,24.2,8.7,30.45,NW,324,0.0,7.0,51,0.00,,,0.00,0,Wunderground v.1.15,2013-02-18 07:35:00,
2013-02-18 02:40:00,24.0,8.0,30.45,North,350,0.0,7.0,50,0.00,,,0.00,0,Wunderground v.1.15,2013-02-18 07:40:00,
2013-02-18 02:50:00,24.0,8.9,30.46,NNE,29,0.0,7.0,52,0.00,,,0.00,0,Wunderground v.1.15,2013-02-18 07:50:00,
2013-02-18 03:00:00,23.8,9.6,30.46,NNE,30,0.0,7.0,54,0.00,,,0.00,0,Wunderground v.1.15,2013-02-18 08:00:00,
2013-02-18 03:10:00,23.6,9.4,30.46,NNE,28,0.0,7.0,54,0.00,,,0.00,0,Wunderground v.1.15,2013-02-18 08:10:00,
2013-02-18 03:19:00,23.5,9.3,30.46,NNE,28,0.0,7.0,54,0.00,,,0.00,0,Wunderground v.1.15,2013-02-18 08:19:00,
2013-02-18 03:25:00,23.6,10.6,30.46,NNE,28,0.0,7.0,57,0.00,,,0.00,0,Wunderground v.1.15,2013-02-18 08:25:00,
2013-02-18 03:30:00,23.5,10.9,30.46,NNE,28,0.0,7.0,58,0.00,,,0.00,0,Wunderground v.1.15,2013-02-18 08:30:00,
2013-02-18 03:35:00,23.4,11.2,30.47,NNE,28,0.0,7.0,59,0.00,,,0.00,0,Wunderground v.1.15,2013-02-18 08:35:00,
2013-02-18 03:45:00,23.0,10.0,30.46,NNE,28,0.0,7.0,57,0.00,,,0.00,0,Wunderground v.1.15,2013-02-18 08:45:00,
2013-02-18 03:50:00,22.9,10.3,30.46,NNE,28,0.0,7.0,58,0.00,,,0.00,0,Wunderground v.1.15,2013-02-18 08:50:00,
2013-02-18 03:55:00,22.9,10.7,30.47,NNE,28,0.0,7.0,59,0.00,,,0.00,0,Wunderground v.1.15,2013-02-18 08:55:00,
2013-02-18 04:00:00,22.9,11.1,30.47,NNE,28,0.0,7.0,60,0.00,,,0.00,0,Wunderground v.1.15,2013-02-18 09:00:00,
2013-02-18 04:10:00,22.8,11.3,30.47,NNE,28,0.0,7.0,61,0.00,,,0.00,0,Wunderground v.1.15,2013-02-18 09:10:00,
2013-02-18 04:15:00,22.8,11.3,30.46,NNE,28,0.0,7.0,61,0.00,,,0.00,0,Wunderground v.1.15,2013-02-18 09:15:00,
2013-02-18 04:25:00,22.7,11.6,30.47,NNE,28,0.0,7.0,62,0.00,,,0.00,0,Wunderground v.1.15,2013-02-18 09:25:00,
2013-02-18 04:30:00,22.7,11.3,30.47,NNE,28,0.0,7.0,61,0.00,,,0.00,0,Wunderground v.1.15,2013-02-18 09:30:00,
2013-02-18 04:40:00,22.7,12.0,30.47,NNE,28,0.0,7.0,63,0.00,,,0.00,0,Wunderground v.1.15,2013-02-18 09:40:00,
2013-02-18 04:45:00,22.7,12.0,30.48,NNE,28,0.0,7.0,63,0.00,,,0.00,0,Wunderground v.1.15,2013-02-18 09:45:00,
2013-02-18 04:50:00,22.6,11.9,30.48,NNE,28,0.0,7.0,63,0.00,,,0.00,0,Wunderground v.1.15,2013-02-18 09:50:00,
2013-02-18 04:55:00,22.6,11.5,30.48,NNE,28,0.0,7.0,62,0.00,,,0.00,0,Wunderground v.1.15,2013-02-18 09:55:00,
2013-02-18 05:00:00,22.6,11.9,30.49,NNE,28,0.0,7.0,63,0.00,,,0.00,0,Wunderground v.1.15,2013-02-18 10:00:00,
2013-02-18 05:10:00,22.6,11.5,30.49,NNE,28,0.0,7.0,62,0.00,,,0.00,0,Wunderground v.1.15,2013-02-18 10:10:00,
2013-02-18 05:15:00,22.6,11.5,30.49,NNE,28,0.0,7.0,62,0.00,,,0.00,0,Wunderground v.1.15,2013-02-18 10:15:00,
2013-02-18 05:20:00,22.6,11.5,30.49,NNE,28,0.0,7.0,62,0.00,,,0.00,0,Wunderground v.1.15,2013-02-18 10:20:00,
2013-02-18 05:30:00,22.6,11.9,30.50,NNE,28,0.0,7.0,63,0.00,,,0.00,0,Wunderground v.1.15,2013-02-18 10:30:00,
2013-02-18 05:40:00,22.6,11.9,30.50,NNE,28,0.0,7.0,63,0.00,,,0.00,0,Wunderground v.1.15,2013-02-18 10:40:00,
2013-02-18 05:45:00,22.6,11.9,30.50,NNE,28,0.0,7.0,63,0.00,,,0.00,0,Wunderground v.1.15,2013-02-18 10:45:00,
2013-02-18 05:50:00,22.7,12.3,30.50,NNE,28,0.0,7.0,64,0.00,,,0.00,0,Wunderground v.1.15,2013-02-18 10:50:00,
2013-02-18 06:00:00,22.7,12.3,30.50,NNE,28,0.0,7.0,64,0.00,,,0.00,0,Wunderground v.1.15,2013-02-18 11:00:00,
2013-02-18 06:10:00,22.8,12.4,30.50,NNE,28,0.0,7.0,64,0.00,,,0.00,0,Wunderground v.1.15,2013-02-18 11:10:00,
2013-02-18 06:20:00,22.9,11.8,30.51,NNE,28,0.0,7.0,62,0.00,,,0.00,0,Wunderground v.1.15,2013-02-18 11:20:00,
2013-02-18 06:30:00,23.5,12.7,30.51,NNE,28,0.0,7.0,63,0.00,,,0.00,0,Wunderground v.1.15,2013-02-18 11:30:00,
2013-02-18 06:35:00,23.6,12.1,30.51,NNE,28,0.0,7.0,61,0.00,,,0.00,0,Wunderground v.1.15,2013-02-18 11:35:00,
2013-02-18 06:45:00,23.9,12.8,30.51,NNE,28,0.0,7.0,62,0.00,,,0.00,0,Wunderground v.1.15,2013-02-18 11:45:00,
2013-02-18 06:50:00,24.0,13.2,30.51,NNE,28,0.0,7.0,63,0.00,,,0.00,0,Wunderground v.1.15,2013-02-18 11:50:00,
2013-02-18 07:00:00,24.0,13.2,30.50,NNE,28,0.0,7.0,63,0.00,,,0.00,0,Wunderground v.1.15,2013-02-18 12:00:00,
2013-02-18 07:10:00,24.0,13.9,30.51,NNE,28,0.0,7.0,65,0.00,,,0.00,0,Wunderground v.1.15,2013-02-18 12:10:00,
2013-02-18 07:15:00,24.0,13.6,30.51,NNE,28,0.0,7.0,64,0.00,,,0.00,5,Wunderground v.1.15,2013-02-18 12:15:00,
2013-02-18 07:25:00,24.0,13.9,30.51,NNE,28,0.0,7.0,65,0.00,,,0.00,11,Wunderground v.1.15,2013-02-18 12:25:00,
2013-02-18 07:30:00,24.0,13.9,30.52,NNE,28,0.0,7.0,65,0.00,,,0.00,14,Wunderground v.1.15,2013-02-18 12:30:00,
2013-02-18 07:35:00,24.1,14.4,30.52,NNE,28,0.0,7.0,66,0.00,,,0.00,16,Wunderground v.1.15,2013-02-18 12:35:00,
2013-02-18 07:40:00,24.2,14.5,30.51,NNE,28,0.0,7.0,66,0.00,,,0.00,18,Wunderground v.1.15,2013-02-18 12:40:00,
2013-02-18 07:50:00,24.3,14.2,30.52,NNE,28,0.0,7.0,65,0.00,,,0.00,16,Wunderground v.1.15,2013-02-18 12:50:00,
2013-02-18 07:55:00,24.5,14.4,30.52,NNE,28,0.0,7.0,65,0.00,,,0.00,16,Wunderground v.1.15,2013-02-18 12:55:00,
2013-02-18 08:00:00,24.7,14.2,30.52,NNE,28,0.0,7.0,64,0.00,,,0.00,16,Wunderground v.1.15,2013-02-18 13:00:00,
2013-02-18 08:09:00,25.0,14.5,30.53,NNE,28,0.0,7.0,64,0.00,,,0.00,16,Wunderground v.1.15,2013-02-18 13:09:00,
2013-02-18 08:15:00,25.3,14.5,30.52,NNE,28,0.0,7.0,63,0.00,,,0.00,18,Wunderground v.1.15,2013-02-18 13:15:00,
2013-02-18 08:20:00,25.4,14.2,30.53,NNE,28,0.0,7.0,62,0.00,,,0.00,23,Wunderground v.1.15,2013-02-18 13:20:00,
2013-02-18 08:30:00,25.9,15.4,30.53,NNE,28,0.0,7.0,64,0.00,,,0.00,28,Wunderground v.1.15,2013-02-18 13:30:00,
2013-02-18 08:39:00,26.1,14.8,30.53,NNE,28,0.0,7.0,62,0.00,,,0.00,33,Wunderground v.1.15,2013-02-18 13:39:00,
2013-02-18 08:45:00,26.4,14.8,30.53,NNE,28,0.0,7.0,61,0.00,,,0.00,47,Wunderground v.1.15,2013-02-18 13:45:00,
2013-02-18 08:50:00,26.6,14.6,30.54,NNE,28,0.0,7.0,60,0.00,,,0.00,47,Wunderground v.1.15,2013-02-18 13:50:00,
2013-02-18 09:00:00,27.1,15.0,30.54,NNE,28,0.0,7.0,60,0.00,,,0.00,51,Wunderground v.1.15,2013-02-18 14:00:00,
2013-02-18 09:10:00,27.7,15.2,30.54,NNW,327,1.0,1.0,59,0.00,,,0.00,46,Wunderground v.1.15,2013-02-18 14:10:00,
2013-02-18 09:15:00,28.0,14.7,30.53,NNW,327,1.0,7.0,57,0.00,,,0.00,211,Wunderground v.1.15,2013-02-18 14:15:00,
2013-02-18 09:24:00,28.4,14.7,30.53,NNW,327,0.0,7.0,56,0.00,,,0.00,97,Wunderground v.1.15,2013-02-18 14:24:00,
2013-02-18 09:29:00,28.6,14.9,30.53,NNW,327,0.0,7.0,56,0.00,,,0.00,86,Wunderground v.1.15,2013-02-18 14:29:00,
2013-02-18 09:35:00,28.8,14.6,30.53,NW,326,0.0,7.0,55,0.00,,,0.00,51,Wunderground v.1.15,2013-02-18 14:35:00,
2013-02-18 09:40:00,29.0,14.8,30.53,NNW,327,0.0,7.0,55,0.00,,,0.00,33,Wunderground v.1.15,2013-02-18 14:40:00,
2013-02-18 09:45:00,29.2,15.0,30.53,NW,326,0.0,7.0,55,0.00,,,0.00,39,Wunderground v.1.15,2013-02-18 14:45:00,
2013-02-18 09:55:00,29.5,14.9,30.53,NW,326,0.0,7.0,54,0.00,,,0.00,366,Wunderground v.1.15,2013-02-18 14:55:00,
2013-02-18 10:00:00,29.8,15.2,30.54,NW,326,0.0,7.0,54,0.00,,,0.00,39,Wunderground v.1.15,2013-02-18 15:00:00,
2013-02-18 10:10:00,30.3,15.2,30.54,NW,326,0.0,7.0,53,0.00,,,0.00,46,Wunderground v.1.15,2013-02-18 15:10:00,
2013-02-18 10:15:00,30.8,15.7,30.54,WNW,284,1.0,7.0,53,0.00,,,0.00,54,Wunderground v.1.15,2013-02-18 15:15:00,
2013-02-18 10:24:00,31.5,15.9,30.54,South,169,1.0,7.0,52,0.00,,,0.00,93,Wunderground v.1.15,2013-02-18 15:24:00,
2013-02-18 10:30:00,31.8,16.6,30.53,West,272,0.0,7.0,53,0.00,,,0.00,67,Wunderground v.1.15,2013-02-18 15:30:00,
2013-02-18 10:40:00,32.6,16.9,30.53,South,186,1.0,7.0,52,0.00,,,0.00,86,Wunderground v.1.15,2013-02-18 15:40:00,
2013-02-18 10:45:00,33.1,16.9,30.54,WNW,290,1.0,7.0,51,0.00,,,0.00,111,Wunderground v.1.15,2013-02-18 15:45:00,
2013-02-18 10:50:00,33.5,17.3,30.54,SW,227,1.0,7.0,51,0.00,,,0.00,100,Wunderground v.1.15,2013-02-18 15:50:00,
2013-02-18 11:00:00,34.3,18.0,30.53,SW,234,0.0,7.0,51,0.00,,,0.00,63,Wunderground v.1.15,2013-02-18 16:00:00,
2013-02-18 11:09:00,35.0,18.2,30.53,South,191,1.0,1.0,50,0.00,,,0.00,65,Wunderground v.1.15,2013-02-18 16:09:00,
2013-02-18 11:15:00,35.5,18.7,30.53,SSE,165,1.0,7.0,50,0.00,,,0.00,109,Wunderground v.1.15,2013-02-18 16:15:00,
2013-02-18 11:20:00,35.9,19.5,30.53,SSW,213,1.0,7.0,51,0.00,,,0.00,149,Wunderground v.1.15,2013-02-18 16:20:00,
2013-02-18 11:30:00,36.6,19.7,30.53,South,188,0.0,7.0,50,0.00,,,0.00,139,Wunderground v.1.15,2013-02-18 16:30:00,
2013-02-18 11:39:00,37.6,20.1,30.53,WSW,251,1.0,7.0,49,0.00,,,0.00,374,Wunderground v.1.15,2013-02-18 16:39:00,
2013-02-18 11:45:00,38.0,20.5,30.52,WSW,246,1.0,7.0,49,0.00,,,0.00,448,Wunderground v.1.15,2013-02-18 16:45:00,
2013-02-18 11:55:00,39.3,21.2,30.52,NW,311,1.0,7.0,48,0.00,,,0.00,520,Wunderground v.1.15,2013-02-18 16:55:00,
2013-02-18 12:00:00,40.0,21.4,30.52,WNW,294,1.0,7.0,47,0.00,,,0.00,503,Wunderground v.1.15,2013-02-18 17:00:00,
2013-02-18 12:10:00,41.1,21.3,30.51,South,176,1.0,1.0,45,0.00,,,0.00,548,Wunderground v.1.15,2013-02-18 17:10:00,
2013-02-18 12:15:00,41.3,21.0,30.51,WSW,257,1.0,2.0,44,0.00,,,0.00,114,Wunderground v.1.15,2013-02-18 17:15:00,
2013-02-18 12:20:00,41.6,20.7,30.51,SW,223,1.0,1.0,43,0.00,,,0.00,283,Wunderground v.1.15,2013-02-18 17:20:00,
2013-02-18 12:29:00,42.2,20.7,30.50,South,190,0.0,7.0,42,0.00,,,0.00,517,Wunderground v.1.15,2013-02-18 17:29:00,
2013-02-18 12:35:00,42.5,21.5,30.50,South,188,1.0,7.0,43,0.00,,,0.00,573,Wunderground v.1.15,2013-02-18 17:35:00,
2013-02-18 12:45:00,43.1,22.1,30.49,WSW,250,1.0,7.0,43,0.00,,,0.00,585,Wunderground v.1.15,2013-02-18 17:45:00,
2013-02-18 12:55:00,43.9,22.3,30.49,NNW,329,1.0,7.0,42,0.00,,,0.00,680,Wunderground v.1.15,2013-02-18 17:55:00,
2013-02-18 13:00:00,44.6,22.9,30.49,WSW,243,1.0,1.0,42,0.00,,,0.00,701,Wunderground v.1.15,2013-02-18 18:00:00,
2013-02-18 13:10:00,44.5,22.8,30.48,SSW,197,1.0,7.0,42,0.00,,,0.00,694,Wunderground v.1.15,2013-02-18 18:10:00,
2013-02-18 13:20:00,45.0,22.7,30.47,SSW,210,1.0,1.0,41,0.00,,,0.00,698,Wunderground v.1.15,2013-02-18 18:20:00,
2013-02-18 13:25:00,45.5,23.7,30.47,SSW,194,1.0,7.0,42,0.00,,,0.00,687,Wunderground v.1.15,2013-02-18 18:25:00,
2013-02-18 13:34:00,46.4,25.6,30.47,ESE,107,1.0,7.0,44,0.00,,,0.00,712,Wunderground v.1.15,2013-02-18 18:34:00,
2013-02-18 13:40:00,46.6,24.1,30.47,SSW,209,1.0,7.0,41,0.00,,,0.00,703,Wunderground v.1.15,2013-02-18 18:40:00,
2013-02-18 13:50:00,46.2,24.3,30.46,South,169,2.0,2.0,42,0.00,,,0.00,691,Wunderground v.1.15,2013-02-18 18:50:00,
2013-02-18 14:00:00,46.5,25.7,30.46,WSW,238,2.0,2.0,44,0.00,,,0.00,677,Wunderground v.1.15,2013-02-18 19:00:00,
2013-02-18 14:10:00,47.4,24.9,30.46,SSE,165,1.0,1.0,41,0.00,,,0.00,664,Wunderground v.1.15,2013-02-18 19:10:00,
2013-02-18 14:15:00,47.3,25.3,30.45,WSW,249,2.0,2.0,42,0.00,,,0.00,652,Wunderground v.1.15,2013-02-18 19:15:00,
2013-02-18 14:24:00,47.6,25.6,30.44,SSE,163,2.0,7.0,42,0.00,,,0.00,585,Wunderground v.1.15,2013-02-18 19:24:00,
2013-02-18 14:35:00,48.3,26.8,30.44,WSW,239,1.0,7.0,43,0.00,,,0.00,550,Wunderground v.1.15,2013-02-18 19:35:00,
2013-02-18 14:45:00,48.1,24.9,30.44,SSW,193,1.0,7.0,40,0.00,,,0.00,619,Wunderground v.1.15,2013-02-18 19:45:00,
2013-02-18 14:50:00,48.1,25.5,30.44,East,83,1.0,1.0,41,0.00,,,0.00,598,Wunderground v.1.15,2013-02-18 19:50:00,
2013-02-18 15:00:00,49.1,25.8,30.44,SW,219,1.0,7.0,40,0.00,,,0.00,570,Wunderground v.1.15,2013-02-18 20:00:00,
2013-02-18 15:10:00,49.0,26.3,30.43,SSW,192,2.0,7.0,41,0.00,,,0.00,469,Wunderground v.1.15,2013-02-18 20:10:00,
2013-02-18 15:20:00,49.5,26.7,30.43,West,259,1.0,7.0,41,0.00,,,0.00,508,Wunderground v.1.15,2013-02-18 20:20:00,
2013-02-18 15:30:00,49.2,27.1,30.42,SSW,194,2.0,2.0,42,0.00,,,0.00,475,Wunderground v.1.15,2013-02-18 20:30:00,
2013-02-18 15:35:00,49.4,27.2,30.42,SSW,213,1.0,7.0,42,0.00,,,0.00,399,Wunderground v.1.15,2013-02-18 20:35:00,
2013-02-18 15:40:00,49.3,27.2,30.42,SSW,196,2.0,7.0,42,0.00,,,0.00,357,Wunderground v.1.15,2013-02-18 20:40:00,
2013-02-18 15:49:00,48.6,26.5,30.42,WSW,257,2.0,7.0,42,0.00,,,0.00,283,Wunderground v.1.15,2013-02-18 20:49:00,
2013-02-18 15:55:00,48.2,26.7,30.42,South,182,2.0,7.0,43,0.00,,,0.00,285,Wunderground v.1.15,2013-02-18 20:55:00,
2013-02-18 16:00:00,48.1,26.6,30.42,SE,126,1.0,1.0,43,0.00,,,0.00,283,Wunderground v.1.15,2013-02-18 21:00:00,
2013-02-18 16:10:00,47.6,26.2,30.42,SSW,204,1.0,1.0,43,0.00,,,0.00,218,Wunderground v.1.15,2013-02-18 21:10:00,
2013-02-18 16:15:00,47.2,25.8,30.42,SW,217,1.0,7.0,43,0.00,,,0.00,190,Wunderground v.1.15,2013-02-18 21:15:00,
2013-02-18 16:24:00,46.8,26.0,30.42,WSW,250,1.0,7.0,44,0.00,,,0.00,265,Wunderground v.1.15,2013-02-18 21:24:00,
2013-02-18 16:30:00,46.5,25.7,30.42,South,169,2.0,2.0,44,0.00,,,0.00,221,Wunderground v.1.15,2013-02-18 21:30:00,
2013-02-18 16:40:00,46.5,25.7,30.42,SW,222,1.0,7.0,44,0.00,,,0.00,258,Wunderground v.1.15,2013-02-18 21:40:00,
2013-02-18 16:45:00,46.5,25.7,30.42,SSW,206,1.0,7.0,44,0.00,,,0.00,269,Wunderground v.1.15,2013-02-18 21:45:00,
2013-02-18 16:50:00,46.6,25.8,30.42,SW,227,1.0,1.0,44,0.00,,,0.00,234,Wunderground v.1.15,2013-02-18 21:50:00,
2013-02-18 16:55:00,46.6,26.4,30.42,SSW,211,1.0,6.0,45,0.00,,,0.00,234,Wunderground v.1.15,2013-02-18 21:55:00,
2013-02-18 17:00:00,46.4,25.6,30.42,SSW,207,1.0,1.0,44,0.00,,,0.00,181,Wunderground v.1.15,2013-02-18 22:00:00,
2013-02-18 17:10:00,46.2,26.0,30.42,SW,217,1.0,7.0,45,0.00,,,0.00,181,Wunderground v.1.15,2013-02-18 22:10:00,
2013-02-18 17:15:00,46.0,25.3,30.41,WSW,250,1.0,7.0,44,0.00,,,0.00,162,Wunderground v.1.15,2013-02-18 22:15:00,
2013-02-18 17:20:00,46.0,25.8,30.41,WSW,251,1.0,1.0,45,0.00,,,0.00,127,Wunderground v.1.15,2013-02-18 22:20:00,
2013-02-18 17:30:00,45.9,26.3,30.41,SW,226,0.0,7.0,46,0.00,,,0.00,109,Wunderground v.1.15,2013-02-18 22:30:00,
2013-02-18 17:35:00,45.6,25.5,30.41,South,176,0.0,7.0,45,0.00,,,0.00,39,Wunderground v.1.15,2013-02-18 22:35:00,
2013-02-18 17:40:00,45.4,25.8,30.41,South,177,0.0,7.0,46,0.00,,,0.00,86,Wunderground v.1.15,2013-02-18 22:40:00,
2013-02-18 17:50:00,44.7,26.2,30.41,SW,225,0.0,7.0,48,0.00,,,0.00,58,Wunderground v.1.15,2013-02-18 22:50:00,
2013-02-18 17:55:00,44.4,25.9,30.41,SW,232,0.0,7.0,48,0.00,,,0.00,33,Wunderground v.1.15,2013-02-18 22:55:00,
2013-02-18 18:00:00,44.0,25.5,30.41,SW,232,0.0,7.0,48,0.00,,,0.00,12,Wunderground v.1.15,2013-02-18 23:00:00,
2013-02-18 18:10:00,43.0,25.6,30.41,WSW,252,0.0,7.0,50,0.00,,,0.00,7,Wunderground v.1.15,2013-02-18 23:10:00,
2013-02-18 18:15:00,42.3,25.0,30.41,WSW,252,0.0,7.0,50,0.00,,,0.00,0,Wunderground v.1.15,2013-02-18 23:15:00,
2013-02-18 18:25:00,40.8,25.0,30.41,WSW,252,0.0,7.0,53,0.00,,,0.00,0,Wunderground v.1.15,2013-02-18 23:25:00,
2013-02-18 18:30:00,40.1,24.8,30.41,WSW,252,0.0,7.0,54,0.00,,,0.00,0,Wunderground v.1.15,2013-02-18 23:30:00,
2013-02-18 18:40:00,38.9,24.5,30.40,WSW,252,0.0,7.0,56,0.00,,,0.00,0,Wunderground v.1.15,2013-02-18 23:40:00,
2013-02-18 18:45:00,38.3,24.4,30.41,WSW,252,0.0,7.0,57,0.00,,,0.00,0,Wunderground v.1.15,2013-02-18 23:45:00,
2013-02-18 18:50:00,37.8,25.5,30.41,WSW,252,0.0,7.0,61,0.00,,,0.00,0,Wunderground v.1.15,2013-02-18 23:50:00,
2013-02-18 19:00:00,36.9,23.9,30.41,WSW,252,0.0,7.0,59,0.00,,,0.00,0,Wunderground v.1.15,2013-02-19 00:00:00,
2013-02-18 19:10:00,36.3,24.1,30.40,WSW,252,0.0,7.0,61,0.00,,,0.00,0,Wunderground v.1.15,2013-02-19 00:10:00,
2013-02-18 19:15:00,36.0,23.8,30.40,West,276,0.0,7.0,61,0.00,,,0.00,0,Wunderground v.1.15,2013-02-19 00:15:00,
2013-02-18 19:20:00,35.9,24.1,30.41,West,277,0.0,7.0,62,0.00,,,0.00,0,Wunderground v.1.15,2013-02-19 00:20:00,
2013-02-18 19:30:00,35.6,24.2,30.40,West,277,0.0,7.0,63,0.00,,,0.00,0,Wunderground v.1.15,2013-02-19 00:30:00,
2013-02-18 19:40:00,35.3,24.0,30.40,West,277,0.0,7.0,63,0.00,,,0.00,0,Wunderground v.1.15,2013-02-19 00:40:00,
2013-02-18 19:45:00,35.2,23.9,30.40,West,277,0.0,7.0,63,0.00,,,0.00,0,Wunderground v.1.15,2013-02-19 00:45:00,
2013-02-18 19:50:00,35.1,24.1,30.40,West,277,0.0,7.0,64,0.00,,,0.00,0,Wunderground v.1.15,2013-02-19 00:50:00,
2013-02-18 20:00:00,34.8,24.2,30.39,West,277,0.0,7.0,65,0.00,,,0.00,0,Wunderground v.1.15,2013-02-19 01:00:00,
2013-02-18 20:10:00,34.6,24.0,30.39,NW,317,0.0,7.0,65,0.00,,,0.00,0,Wunderground v.1.15,2013-02-19 01:10:00,
2013-02-18 20:20:00,34.4,24.2,30.38,NW,311,0.0,7.0,66,0.00,,,0.00,0,Wunderground v.1.15,2013-02-19 01:20:00,
2013-02-18 20:29:00,34.4,24.2,30.38,NW,310,0.0,7.0,66,0.00,,,0.00,0,Wunderground v.1.15,2013-02-19 01:29:00,
2013-02-18 20:35:00,34.4,24.2,30.38,NW,310,0.0,7.0,66,0.00,,,0.00,0,Wunderground v.1.15,2013-02-19 01:35:00,
2013-02-18 20:40:00,34.4,24.2,30.38,NW,311,0.0,7.0,66,0.00,,,0.00,0,Wunderground v.1.15,2013-02-19 01:40:00,
2013-02-18 20:50:00,34.2,24.4,30.37,NW,314,0.0,7.0,67,0.00,,,0.00,0,Wunderground v.1.15,2013-02-19 01:50:00,
2013-02-18 21:00:00,34.2,24.4,30.37,SW,225,0.0,7.0,67,0.00,,,0.00,0,Wunderground v.1.15,2013-02-19 02:00:00,
2013-02-18 21:09:00,34.1,24.3,30.37,SW,225,0.0,7.0,67,0.00,,,0.00,0,Wunderground v.1.15,2013-02-19 02:09:00,
2013-02-18 21:15:00,34.0,23.8,30.37,South,171,0.0,7.0,66,0.00,,,0.00,0,Wunderground v.1.15,2013-02-19 02:15:00,
2013-02-18 21:20:00,34.1,24.3,30.36,South,184,0.0,7.0,67,0.00,,,0.00,0,Wunderground v.1.15,2013-02-19 02:20:00,
2013-02-18 21:25:00,34.2,24.4,30.36,West,271,0.0,7.0,67,0.00,,,0.00,0,Wunderground v.1.15,2013-02-19 02:25:00,
2013-02-18 21:30:00,34.3,24.5,30.36,WNW,302,0.0,7.0,67,0.00,,,0.00,0,Wunderground v.1.15,2013-02-19 02:30:00,
2013-02-18 21:40:00,34.2,24.4,30.36,West,275,0.0,7.0,67,0.00,,,0.00,0,Wunderground v.1.15,2013-02-19 02:40:00,
2013-02-18 21:45:00,34.3,24.5,30.36,SW,229,0.0,7.0,67,0.00,,,0.00,0,Wunderground v.1.15,2013-02-19 02:45:00,
2013-02-18 21:50:00,34.4,24.2,30.37,WSW,258,0.0,7.0,66,0.00,,,0.00,0,Wunderground v.1.15,2013-02-19 02:50:00,
2013-02-18 22:00:00,34.6,24.4,30.36,South,178,1.0,1.0,66,0.00,,,0.00,0,Wunderground v.1.15,2013-02-19 03:00:00,
2013-02-18 22:09:00,34.7,24.5,30.36,SSW,213,1.0,1.0,66,0.00,,,0.00,0,Wunderground v.1.15,2013-02-19 03:09:00,
2013-02-18 22:15:00,34.6,24.4,30.36,SW,217,0.0,7.0,66,0.00,,,0.00,0,Wunderground v.1.15,2013-02-19 03:15:00,
2013-02-18 22:20:00,34.6,24.4,30.35,West,265,1.0,1.0,66,0.00,,,0.00,0,Wunderground v.1.15,2013-02-19 03:20:00,
2013-02-18 22:29:00,34.6,24.4,30.34,West,267,0.0,7.0,66,0.00,,,0.00,0,Wunderground v.1.15,2013-02-19 03:29:00,
2013-02-18 22:35:00,34.6,24.4,30.34,West,264,0.0,7.0,66,0.00,,,0.00,0,Wunderground v.1.15,2013-02-19 03:35:00,
2013-02-18 22:45:00,34.4,24.6,30.33,WSW,242,0.0,7.0,67,0.00,,,0.00,0,Wunderground v.1.15,2013-02-19 03:45:00,
2013-02-18 22:55:00,34.4,24.6,30.33,WSW,242,0.0,7.0,67,0.00,,,0.00,0,Wunderground v.1.15,2013-02-19 03:55:00,
2013-02-18 23:00:00,34.3,24.8,30.32,West,271,0.0,7.0,68,0.00,,,0.00,0,Wunderground v.1.15,2013-02-19 04:00:00,
2013-02-18 23:10:00,34.2,24.4,30.32,West,263,0.0,7.0,67,0.00,,,0.00,0,Wunderground v.1.15,2013-02-19 04:10:00,
2013-02-18 23:20:00,34.1,24.3,30.32,West,263,0.0,7.0,67,0.00,,,0.00,0,Wunderground v.1.15,2013-02-19 04:20:00,
2013-02-18 23:25:00,34.1,24.3,30.32,WSW,256,0.0,7.0,67,0.00,,,0.00,0,Wunderground v.1.15,2013-02-19 04:25:00,
2013-02-18 23:30:00,33.9,24.1,30.32,WSW,257,0.0,7.0,67,0.00,,,0.00,0,Wunderground v.1.15,2013-02-19 04:30:00,
2013-02-18 23:35:00,33.9,24.4,30.32,South,188,1.0,7.0,68,0.00,,,0.00,0,Wunderground v.1.15,2013-02-19 04:35:00,
2013-02-18 23:40:00,33.9,24.4,30.32,WSW,245,1.0,1.0,68,0.00,,,0.00,0,Wunderground v.1.15,2013-02-19 04:40:00,
2013-02-18 23:49:00,33.8,24.0,30.32,SSE,163,0.0,7.0,67,0.00,,,0.00,0,Wunderground v.1.15,2013-02-19 04:49:00,
2013-02-18 23:55:00,33.8,24.0,30.32,SW,225,1.0,7.0,67,0.00,,,0.00,0,Wunderground v.1.15,2013-02-19 04:55:00,